Home   Weather   Pierre   Past weeks
Flag for USA

Past Weather in Pierre, South Dakota, USA — Yesterday and Last 2 Weeks

Now
40 °F

Clear.


Feels Like: 33 °F
Forecast: 44 / 34 °F
Wind: 10 mph from North

Location: Pierre Regional Airport

Current Time: Oct 14, 2019 at 11:02:58 pm

Latest Report: Oct 14, 2019 at 9:53 pm


Visibility: 10 mi

Pressure: 29.87 "Hg

Humidity: 86%

Dew Point: 36 °F

Location of PierreLocation

Past Weather in Pierre — Graph

°F

Pierre Temperature Yesterday

Maximum temperature yesterday: 49 °F (at 3:53 pm)
Minimum temperature yesterday: 27 °F (at 11:53 pm)
Average temperature yesterday: 39 °F

High & Low Weather Summary for the Past Weeks

 TemperatureHumidityPressure
High76 °F (Oct 8, 4:53 pm)100% (Oct 5, 1:53 am)30.36 "Hg (Oct 5, 1:53 am)
Low26 °F (Oct 14, 12:53 am)27% (Oct 7, 2:53 pm)29.46 "Hg (Sep 30, 1:53 am)
Average44 °F78%29.99 "Hg
* Reported Sep 29 9:11 pm — Oct 14 9:53 pm, Pierre. Weather by CustomWeather, © 2019

Note: Actual official high and low records may vary slightly from our data, if they occured in-between our weather recording intervals... More about our weather records

Advertising

Pierre Weather History for the Previous 24 Hours

Scroll right to see more
 ConditionsComfort  
Time TempWeatherWind HumidityBarometerVisibility
9:53 pm
Mon, Oct 14
40 °FClear.10 mph86%29.87 "Hg10 mi
8:53 pm43 °FClear.10 mph79%29.86 "Hg10 mi
7:53 pm44 °FClear.9 mph76%29.83 "Hg10 mi
6:53 pm46 °FSunny.7 mph71%29.80 "Hg10 mi
5:53 pm55 °FSunny.5 mph49%29.76 "Hg10 mi
4:53 pm55 °FSunny.No wind49%29.75 "Hg10 mi
3:53 pm54 °FSunny.8 mph51%29.74 "Hg10 mi
2:53 pm54 °FSunny.N/A53%29.74 "Hg10 mi
1:53 pm52 °FSunny.12 mph55%29.75 "Hg10 mi
12:53 pm47 °FSunny.12 mph64%29.79 "Hg10 mi
11:53 am44 °FSunny.13 mph71%29.81 "Hg10 mi
10:53 am42 °FSunny.14 mph76%29.83 "Hg10 mi
9:53 am37 °FSunny.8 mph93%29.85 "Hg10 mi
8:53 am32 °FSunny.8 mph96%29.87 "Hg10 mi
7:53 am30 °FClear.7 mph100%29.90 "Hg10 mi
6:53 am30 °FClear.8 mph96%29.91 "Hg10 mi
5:53 am31 °FClear.8 mph92%29.90 "Hg10 mi
4:53 am31 °FClear.9 mph92%29.93 "Hg10 mi
3:53 am30 °FClear.8 mph89%29.95 "Hg10 mi
2:53 am29 °FClear.6 mph89%29.97 "Hg10 mi
1:53 am27 °FClear.6 mph96%29.98 "Hg10 mi
12:53 am26 °FClear.3 mph92%29.98 "Hg10 mi
11:53 pm
Sun, Oct 13
27 °FClear.No wind89%29.99 "Hg10 mi
Weather by CustomWeather, © 2019

See weather overview